Weather History for KIIY - April, 2013

Change the Weather History Date:

Saturday, April 20, 2013

  Actual Average (KAHN) Record (KAHN)
Temperature  
Mean Temperature 52 °F 63 °F  
Max Temperature 64 °F 75 °F 94 °F (1925)
Min Temperature 41 °F 50 °F 29 °F (1983)
Degree Days  
Heating Degree Days 12 4  
Month to date heating degree days 115  
Since 1 July heating degree days 2710  
Cooling Degree Days 0 2  
Month to date cooling degree days 24  
Year to date cooling degree days 35  
Growing Degree Days 2 (Base 50)    
Moisture  
Dew Point 35 °F    
Average Humidity 58    
Maximum Humidity 93    
Minimum Humidity 21    
Precipitation  
Precipitation 0.00 in 0.10 in 1.88 in (1893)
Month to date precipitation 2.12  
Year to date precipitation 15.08  
Snow  
Snow 0.00 in 0.00 in 0.00 in (2002)
Month to date snowfall 0.1  
Since 1 July snowfall 3.0  
Snow Depth -    
Sea Level Pressure  
Sea Level Pressure 30.13 in    
Wind  
Wind Speed 6 mph (NW)    
Max Wind Speed 12 mph    
Max Gust Speed 31 mph    
Visibility 9 miles    
Events      
T = Trace of Precipitation, MM = Missing Value Source: NWS Daily Summary

Daily Weather History Graph

Daily Weather History Graph

Search for Another Location

Airport or City:

Trip Planner

Search our weather history database for the weather conditions in past years. The results will help you decide how hot, cold, wet, or windy it might be!

Date:

Astronomy

Apr. 20, 2013 Rise Set
Actual Time 6:54 AM EDT 8:06 PM EDT
Civil Twilight 6:28 AM EDT 8:32 PM EDT
Nautical Twilight 5:57 AM EDT 9:03 PM EDT
Astronomical Twilight 5:25 AM EDT 9:35 PM EDT
Moon 3:03 PM EDT (4/20) 3:27 AM EDT (4/20)
Length of Visible Light 14h 04m
Length of Day
13h 12m
Waxing Gibbous, 71% of the Moon is Illuminated
Apr 20
Waxing Gibbous
Apr 25
Full
May 2
Last Quarter
May 9
New
May 18
First Quarter

Hourly Weather History & Observations

Time (EDT) Temp. Windchill Dew Point Humidity Pressure Visibility Wind Dir Wind Speed Gust Speed Precip Events Conditions
12:15 AM 50.0 °F - 46.4 °F 87% 30.01 in 10.0 mi West 11.5 mph - N/A   Clear
12:35 AM 48.2 °F - 44.6 °F 87% 30.01 in 10.0 mi West 11.5 mph 16.1 mph N/A   Clear
12:55 AM 48.2 °F - 44.6 °F 87% 30.01 in 10.0 mi West 10.4 mph - N/A   Clear
1:15 AM 46.4 °F 41.9 °F 44.6 °F 93% 30.02 in 10.0 mi West 9.2 mph 16.1 mph N/A   Clear
1:35 AM 46.4 °F 41.1 °F 42.8 °F 87% 30.01 in 10.0 mi West 11.5 mph - N/A   Clear
1:55 AM 46.4 °F 42.4 °F 42.8 °F 87% 30.01 in 10.0 mi West 8.1 mph - N/A   Clear
2:15 AM 46.4 °F 41.9 °F 42.8 °F 87% 30.01 in 10.0 mi West 9.2 mph - N/A   Clear
2:35 AM 46.4 °F 42.9 °F 41.0 °F 81% 30.01 in 10.0 mi West 6.9 mph - N/A   Clear
2:55 AM 46.4 °F 42.4 °F 42.8 °F 87% 30.01 in 10.0 mi West 8.1 mph - N/A   Clear
3:15 AM 46.4 °F 42.4 °F 42.8 °F 87% 30.02 in 10.0 mi West 8.1 mph - N/A   Clear
3:35 AM 44.6 °F 39.2 °F 41.0 °F 87% 30.01 in 10.0 mi West 10.4 mph - N/A   Clear
3:55 AM 44.6 °F 40.2 °F 41.0 °F 87% 30.02 in 10.0 mi West 8.1 mph - N/A   Clear
4:15 AM 44.6 °F 40.2 °F 41.0 °F 87% 30.02 in 10.0 mi WNW 8.1 mph - N/A   Clear
4:35 AM 44.6 °F 40.2 °F 39.2 °F 81% 30.03 in 10.0 mi WNW 8.1 mph 16.1 mph N/A   Clear
4:55 AM 42.8 °F 39.3 °F 37.4 °F 81% 30.05 in 10.0 mi WNW 5.8 mph - N/A   Clear
5:15 AM 42.8 °F 39.3 °F 37.4 °F 81% 30.05 in 10.0 mi WNW 5.8 mph - N/A   Clear
5:35 AM 42.8 °F 38.0 °F 37.4 °F 81% 30.06 in 10.0 mi WNW 8.1 mph - N/A   Clear
5:55 AM 42.8 °F 39.3 °F 37.4 °F 81% 30.06 in 10.0 mi WNW 5.8 mph - N/A   Clear
6:15 AM 42.8 °F 38.0 °F 37.4 °F 81% 30.08 in 10.0 mi WNW 8.1 mph - N/A   Clear
6:35 AM 41.0 °F 37.1 °F 35.6 °F 81% 30.09 in 10.0 mi NW 5.8 mph - N/A   Clear
6:55 AM 41.0 °F 38.0 °F 35.6 °F 81% 30.10 in 10.0 mi NW 4.6 mph - N/A   Clear
7:15 AM 41.0 °F 37.1 °F 37.4 °F 87% 30.10 in 7.0 mi WNW 5.8 mph - N/A   Clear
7:35 AM 41.0 °F 37.1 °F 37.4 °F 87% 30.12 in 7.0 mi NW 5.8 mph - N/A   Clear
7:55 AM 41.0 °F 38.0 °F 35.6 °F 81% 30.12 in 10.0 mi NW 4.6 mph - N/A   Clear
8:15 AM 42.8 °F 38.6 °F 35.6 °F 76% 30.13 in 10.0 mi NW 6.9 mph - N/A   Clear
8:35 AM 44.6 °F 41.4 °F 35.6 °F 71% 30.14 in 7.0 mi NW 5.8 mph - N/A   Clear
8:55 AM 46.4 °F - 32.0 °F 57% 30.15 in 7.0 mi Calm Calm - N/A   Clear
9:15 AM 48.2 °F - 33.8 °F 58% 30.16 in 10.0 mi NNW 4.6 mph - N/A   Clear
9:35 AM 51.8 °F - 33.8 °F 50% 30.16 in 7.0 mi North 5.8 mph - N/A   Clear
9:55 AM 53.6 °F - 35.6 °F 51% 30.17 in 10.0 mi North 8.1 mph - N/A   Clear
10:15 AM 53.6 °F - 35.6 °F 51% 30.17 in 7.0 mi Calm Calm - N/A   Clear
10:35 AM 53.6 °F - 33.8 °F 47% 30.18 in 10.0 mi North 4.6 mph - N/A   Clear
10:55 AM 55.4 °F - 33.8 °F 44% 30.19 in 10.0 mi North 3.5 mph - N/A   Clear
11:15 AM 59.0 °F - 33.8 °F 39% 30.19 in 10.0 mi Calm Calm - N/A   Clear
11:35 AM 59.0 °F - 32.0 °F 36% 30.19 in 7.0 mi WNW 3.5 mph - N/A   Clear
11:55 AM 59.0 °F - 32.0 °F 36% 30.19 in 10.0 mi North 5.8 mph - N/A   Clear
12:15 PM 59.0 °F - 30.2 °F 34% 30.19 in 10.0 mi Calm Calm - N/A   Clear
12:35 PM 59.0 °F - 26.6 °F 29% 30.19 in 10.0 mi Calm Calm - N/A   Clear
12:55 PM 59.0 °F - 30.2 °F 34% 30.18 in 10.0 mi NNE 3.5 mph - N/A   Clear
1:15 PM 59.0 °F - 26.6 °F 29% 30.18 in 10.0 mi NNE 4.6 mph - N/A   Clear
1:35 PM 62.6 °F - 28.4 °F 27% 30.17 in 7.0 mi NE 6.9 mph - N/A   Clear
1:55 PM 60.8 °F - 28.4 °F 29% 30.16 in 7.0 mi West 8.1 mph - N/A   Clear
2:15 PM 62.6 °F - 28.4 °F 27% 30.16 in 10.0 mi North 5.8 mph 31.1 mph N/A   Clear
2:35 PM 62.6 °F - 26.6 °F 26% 30.16 in 10.0 mi West 4.6 mph - N/A   Clear
2:55 PM 62.6 °F - 28.4 °F 27% 30.15 in 10.0 mi North 8.1 mph - N/A   Clear
3:15 PM 64.4 °F - 26.6 °F 24% 30.15 in 7.0 mi Calm Calm - N/A   Clear
3:35 PM 64.4 °F - 26.6 °F 24% 30.15 in 10.0 mi North 3.5 mph - N/A   Clear
3:55 PM 64.4 °F - 23.0 °F 21% 30.14 in 10.0 mi NW 5.8 mph - N/A   Clear
4:15 PM 64.4 °F - 23.0 °F 21% 30.14 in 7.0 mi North 4.6 mph - N/A   Clear
4:35 PM 64.4 °F - 24.8 °F 22% 30.14 in 7.0 mi North 3.5 mph - N/A   Clear
4:55 PM 64.4 °F - 24.8 °F 22% 30.14 in 7.0 mi Calm Calm - N/A   Clear
5:15 PM 64.4 °F - 28.4 °F 26% 30.14 in 7.0 mi NE 5.8 mph - N/A   Clear
5:35 PM 64.4 °F - 23.0 °F 21% 30.14 in 7.0 mi Calm Calm - N/A   Clear
5:55 PM 64.4 °F - 24.8 °F 22% 30.14 in 7.0 mi West 4.6 mph - N/A   Clear
6:15 PM 64.4 °F - 26.6 °F 24% 30.14 in 7.0 mi Calm Calm - N/A   Clear
6:35 PM 64.4 °F - 28.4 °F 26% 30.14 in 7.0 mi NE 3.5 mph - N/A   Clear
6:55 PM 64.4 °F - 26.6 °F 24% 30.15 in 7.0 mi Calm Calm - N/A   Clear
7:15 PM 64.4 °F - 28.4 °F 26% 30.15 in 10.0 mi Calm Calm - N/A   Clear
7:35 PM 60.8 °F - 35.6 °F 39% 30.16 in 10.0 mi Calm Calm - N/A   Clear
7:55 PM 59.0 °F - 42.8 °F 55% 30.16 in 7.0 mi Calm Calm - N/A   Clear
8:15 PM 53.6 °F - 42.8 °F 67% 30.17 in 10.0 mi Calm Calm - N/A   Clear
8:35 PM 53.6 °F - 42.8 °F 67% 30.18 in 10.0 mi East 3.5 mph - N/A   Clear
8:55 PM 53.6 °F - 44.6 °F 72% 30.19 in 10.0 mi Calm Calm - N/A   Clear
9:15 PM 53.6 °F - 44.6 °F 72% 30.20 in 10.0 mi Calm Calm - N/A   Clear
9:35 PM 51.8 °F - 42.8 °F 71% 30.21 in 10.0 mi Calm Calm - N/A   Clear
9:55 PM 50.0 °F - 41.0 °F 71% 30.21 in 10.0 mi ESE 3.5 mph - N/A   Clear
10:15 PM 48.2 °F - 41.0 °F 76% 30.22 in 10.0 mi Calm Calm - N/A   Clear
10:35 PM 48.2 °F - 39.2 °F 71% 30.22 in 10.0 mi Calm Calm - N/A   Clear
10:55 PM 48.2 °F - 41.0 °F 76% 30.23 in 10.0 mi Calm Calm - N/A   Clear
11:15 PM 46.4 °F - 41.0 °F 81% 30.23 in 10.0 mi Calm Calm - N/A   Clear
11:35 PM 46.4 °F - 41.0 °F 81% 30.23 in 10.0 mi Calm Calm - N/A   Clear
11:55 PM 44.6 °F - 41.0 °F 87% 30.24 in 7.0 mi Calm Calm - N/A   Clear